Cancun International Airp, Mexico

10:39 PM EST on July 27, 2016 (GMT -0500)
Cancun International

Weather History for MMUN - November, 2011

Change the Weather History Date:

Friday, November 25, 2011

  Actual Average Record
Temperature  
Mean Temperature 74 °F -  
Max Temperature 82 °F 82 °F 89 °F (2004)
Min Temperature 66 °F 67 °F 60 °F (2008)
Cooling Degree Days 9    
Growing Degree Days 24 (Base 50)    
Moisture  
Dew Point 67 °F    
Average Humidity 80    
Maximum Humidity 100    
Minimum Humidity 54    
Precipitation  
Precipitation 0.00 in - - ()
Sea Level Pressure  
Sea Level Pressure 30.03 in    
Wind  
Wind Speed 3 mph ()    
Max Wind Speed 14 mph    
Max Gust Speed -    
Visibility 7.3 miles    
Events Rain    
Averages and records for this station are not official NWS values.
T = Trace of Precipitation, MM = Missing Value Source: Averaged Metar Reports

Daily Weather History Graph

Daily Weather History Graph

Search for Another Location

Airport or City:

Trip Planner

Search our weather history database for the weather conditions in past years. The results will help you decide how hot, cold, wet, or windy it might be!

Date:

Astronomy

Nov. 25, 2011 Rise Set
Actual Time 6:04 AM CST 5:04 PM CST
Civil Twilight 5:40 AM CST 5:28 PM CST
Nautical Twilight 5:13 AM CST 5:55 PM CST
Astronomical Twilight 4:46 AM CST 6:22 PM CST
Moon 6:25 AM CST (11/25) 5:39 PM CST (11/25)
Length of Visible Light 11h 48m
Length of Day
11h 00m
New Moon, 0% of the Moon is Illuminated
Nov 25
New Moon
Dec 2
First Quarter
Dec 10
Full
Dec 17
Last Quarter
Dec 24
New

Hourly Weather History & Observations

Time (CST) Temp. Heat Index Dew Point Humidity Pressure Visibility Wind Dir Wind Speed Gust Speed Precip Events Conditions
12:47 AM 68.0 °F - 68.0 °F 100% 30.07 in 7.0 mi Calm Calm - N/A   Mostly Cloudy
1:43 AM 68.0 °F - 68.0 °F 100% 30.05 in 7.0 mi Calm Calm - N/A   Mostly Cloudy
2:44 AM 68.0 °F - 68.0 °F 100% 30.07 in 7.0 mi Calm Calm - N/A   Mostly Cloudy
3:42 AM 68.0 °F - 68.0 °F 100% 30.04 in 6.0 mi Calm Calm - N/A Rain Light Rain
4:42 AM 66.2 °F - 66.2 °F 100% 30.04 in 7.0 mi NW 3.5 mph - N/A   Mostly Cloudy
5:47 AM 66.2 °F - 66.2 °F 100% 30.06 in 7.0 mi Calm Calm - N/A   Scattered Clouds
6:42 AM 66.2 °F - 66.2 °F 100% 30.06 in 7.0 mi Calm Calm - N/A   Partly Cloudy
7:41 AM 69.8 °F - 69.8 °F 100% 30.07 in 7.0 mi Calm Calm - N/A   Clear
8:49 AM 77.0 °F - 69.8 °F 78% 30.09 in 7.0 mi Calm Calm - N/A   Clear
9:54 AM 80.6 °F 83.2 °F 68.0 °F 65% 30.08 in 7.0 mi East 5.8 mph - N/A   Scattered Clouds
10:40 AM 78.8 °F - 66.2 °F 65% 30.07 in 7.0 mi East 8.1 mph - N/A   Mostly Cloudy
11:41 AM 82.4 °F 84.6 °F 66.2 °F 58% 30.06 in 7.0 mi East 6.9 mph - N/A   Scattered Clouds
12:42 PM 82.4 °F 84.6 °F 66.2 °F 58% 30.00 in 7.0 mi East 8.1 mph - N/A   Scattered Clouds
1:45 PM 82.4 °F 83.9 °F 64.4 °F 54% 29.99 in 7.0 mi ESE 8.1 mph - N/A   Scattered Clouds
2:46 PM 80.6 °F 82.7 °F 66.2 °F 61% 29.99 in 8.0 mi East 11.5 mph - N/A   Scattered Clouds
3:42 PM 78.8 °F - 66.2 °F 65% 29.98 in 8.0 mi ESE 13.8 mph - N/A   Mostly Cloudy
4:45 PM 77.0 °F - 64.4 °F 65% 29.96 in 8.0 mi East 5.8 mph - N/A   Mostly Cloudy
5:40 PM 77.0 °F - 66.2 °F 69% 29.98 in 8.0 mi East 4.6 mph - N/A   Mostly Cloudy
6:50 PM 77.0 °F - 68.0 °F 74% 29.99 in 8.0 mi East 4.6 mph - N/A   Mostly Cloudy
7:56 PM 75.2 °F - 68.0 °F 78% 30.01 in 8.0 mi East 5.8 mph - N/A   Scattered Clouds
8:45 PM 75.2 °F - 68.0 °F 78% 30.02 in 8.0 mi East 4.6 mph - N/A   Clear
9:46 PM 73.4 °F - 68.0 °F 83% 30.01 in 7.0 mi Calm Calm - N/A   Scattered Clouds
10:44 PM 73.4 °F - 68.0 °F 83% 30.01 in 7.0 mi East 5.8 mph - N/A   Partly Cloudy
11:48 PM 69.8 °F - 68.0 °F 94% 30.00 in 7.0 mi Calm Calm - N/A   Partly Cloudy